Starlink 3617

operational
NORAD ID: 51780 Int'l Des: 2022-017 Owner: SPXS Country: US Constellation: starlink
LEOCIRCULAR

Starlink 3617について

説明を読み込み中...

リアルタイム位置

3D地球を読み込み中...

次回通過

高度履歴

Altitude vs Time

uPlot chart will show altitude changes over time

軌道要素

1 51780U 22017N 25307.65431369 -.00001512 00000-0 -76980-4 0 9992
2 51780 53.2160 184.9067 0001365 82.4730 277.6417 15.08829903203390
Epoch: Nov 3, 2025 • Age: 12 hours

現在のステータス

高度 553.1 km
速度 7.58 km/s
衛星直下点 -38.36°S, 62.7°W
打ち上げ日 Feb 25, 2022
運用期間 3.6 years
タイプ internet

技術仕様

分類 Payload
質量 297.00 kg
乾燥質量 275.00 kg
総質量 297.00 kg
長さ 0.20 m
直径 2.80 m
スパン 9.00 m
形状 Box + pan
製造者 SPXS
バスタイプ Starlink
フェーズステータス In Orbit
所有者/国 SPXS/US

大規模コンステレーション

Loading constellations...